Location: ???????
(55.4362°N, 38.1183°E)
Time: 17:35:37
(UTC+00:00)

Cosmos 2278 Rocket - Pass Details

Date: 29 October 2021
Orbit: 841 x 845 km, 71.0° (Epoch: 28 November)

Event Time Altitude Azimuth Distance (km) Brightness Sun altitude
Rises 14:48:00 0° 323° (NW) 3,418 5.7 -8.0°
Reaches altitude 10° 14:50:43 10° 333° (NNW) 2,480 4.8 -8.3°
Maximum altitude 14:55:50 33° 36° (NE) 1,400 3.0 -9.1°
Enters shadow 15:00:49 10° 100° (E) 2,439 4.0 -9.8°
